AEA92 LEMD-LSGG

Flight info

Callsign AEA92
Flight time N/A
Altitude 36000
Route PINAR N870 SEGRE N871 TOPTU DCT TOU DCT GAI DCT MEN/N0427F300 DCT NINUN DCT LATAM DCT ETREK DCT LUXAN G53 LTP Z16 BELUS
Aircraft B738/M-SDE2E3FGHIRWXY/LB1

Departure

Time 2026-05-05 15:51
Airport Adolfo Suárez Madrid–Barajas Airport (LEMD)

Arrival

Time N/A
Airport Geneva International Airport (LSGG)
Time Latitude Longitude Altitude Speed Heading
2026-05-05 15:31 40.47145 -3.56778 1988 ft 0 kts 232°
2026-05-05 15:38 40.47147 -3.56776 1988 ft 0 kts 232°
2026-05-05 15:38 40.47144 -3.56780 1988 ft 1 kts 232°
2026-05-05 15:39 40.47133 -3.56798 1989 ft 3 kts 232°
2026-05-05 15:39 40.47121 -3.56822 1991 ft 3 kts 239°
2026-05-05 15:39 40.47127 -3.56864 1992 ft 8 kts 314°
2026-05-05 15:39 40.47195 -3.56925 1992 ft 15 kts 339°
2026-05-05 15:40 40.47276 -3.56923 1990 ft 0 kts 10°
2026-05-05 15:43 40.47281 -3.56921 1990 ft 1 kts 11°
2026-05-05 15:43 40.47317 -3.56893 1989 ft 11 kts 47°
2026-05-05 15:43 40.47389 -3.56793 1985 ft 19 kts
2026-05-05 15:44 40.47505 -3.56880 1986 ft 20 kts 322°
2026-05-05 15:44 40.47611 -3.56984 1990 ft 18 kts 323°
2026-05-05 15:44 40.47707 -3.57081 1994 ft 17 kts 321°
2026-05-05 15:44 40.47799 -3.57178 1998 ft 16 kts 322°
2026-05-05 15:45 40.47888 -3.57268 2000 ft 17 kts 321°
2026-05-05 15:45 40.47991 -3.57372 2002 ft 20 kts 321°
2026-05-05 15:45 40.48105 -3.57491 2005 ft 21 kts 320°
2026-05-05 15:45 40.48224 -3.57608 2005 ft 22 kts 321°
2026-05-05 15:46 40.48355 -3.57745 2005 ft 23 kts 326°
2026-05-05 15:46 40.48485 -3.57847 2008 ft 20 kts 333°
2026-05-05 15:46 40.48612 -3.57928 2007 ft 20 kts 351°
2026-05-05 15:46 40.48753 -3.57936 2006 ft 18 kts
2026-05-05 15:47 40.48856 -3.57877 2002 ft 19 kts 86°
2026-05-05 15:47 40.48861 -3.57746 1999 ft 23 kts 89°
2026-05-05 15:47 40.48864 -3.57416 1990 ft 31 kts 90°
2026-05-05 15:47 40.48858 -3.57130 1982 ft 34 kts 89°
2026-05-05 15:48 40.48863 -3.56787 1969 ft 40 kts 90°
2026-05-05 15:48 40.48866 -3.56382 1950 ft 47 kts 72°
2026-05-05 15:48 40.49126 -3.56246 1939 ft 43 kts 354°
2026-05-05 15:48 40.49397 -3.56250 1931 ft 35 kts 357°
2026-05-05 15:49 40.49625 -3.56256 1926 ft 29 kts 352°
2026-05-05 15:49 40.49818 -3.56255 1924 ft 26 kts 359°
2026-05-05 15:49 40.50006 -3.56265 1924 ft 28 kts 357°
2026-05-05 15:49 40.50122 -3.56151 1924 ft 19 kts 81°
2026-05-05 15:50 40.50143 -3.55996 1918 ft 16 kts 57°
2026-05-05 15:50 40.50253 -3.55925 1917 ft 24 kts
2026-05-05 15:50 40.50694 -3.56001 1918 ft 105 kts 348°
2026-05-05 15:50 40.51637 -3.56116 2035 ft 157 kts
2026-05-05 15:51 40.52758 -3.55893 2534 ft 182 kts
2026-05-05 15:51 40.54104 -3.55580 3116 ft 207 kts
2026-05-05 15:51 40.55482 -3.55233 4236 ft 201 kts
2026-05-05 15:51 40.56784 -3.54852 5061 ft 204 kts 11°
2026-05-05 15:52 40.58221 -3.54358 5608 ft 225 kts 13°
2026-05-05 15:52 40.59759 -3.53733 6215 ft 242 kts 16°
2026-05-05 15:52 40.61240 -3.53024 7044 ft 247 kts 20°
2026-05-05 15:52 40.62773 -3.52149 8153 ft 239 kts 24°
2026-05-05 15:53 40.64185 -3.51178 9234 ft 230 kts 28°
2026-05-05 15:53 40.65609 -3.49985 9393 ft 264 kts 39°
2026-05-05 15:53 40.66749 -3.48014 9822 ft 285 kts 63°
2026-05-05 15:53 40.67695 -3.45661 10443 ft 300 kts 54°
2026-05-05 15:54 40.69193 -3.43610 10899 ft 321 kts 39°
2026-05-05 15:54 40.70947 -3.41647 11416 ft 340 kts 42°
2026-05-05 15:54 40.72383 -3.39187 12147 ft 350 kts 63°
2026-05-05 15:54 40.73289 -3.36207 12908 ft 358 kts 70°
2026-05-05 15:55 40.74210 -3.33074 12999 ft 366 kts 68°
2026-05-05 15:55 40.75194 -3.30028 12974 ft 357 kts 67°
2026-05-05 15:55 40.76171 -3.27038 12978 ft 355 kts 67°
2026-05-05 15:55 40.77148 -3.24036 12976 ft 356 kts 67°
2026-05-05 15:56 40.78120 -3.21063 13202 ft 354 kts 67°
2026-05-05 15:56 40.79038 -3.18265 13949 ft 360 kts 67°